Location: The D'Auria's Ocala Star Observatory
(29.0276°N, 82.1742°W)
Time: 05:26:56
(UTC-04:00)

Okean 3 Rocket - Visible Passes

Search period start: 05 July 2015 00:00
Search period end: 15 July 2015 00:00
Orbit: 616 x 646 km, 82.5° (Epoch: 04 July)

Date Brightness Start Highest point End Pass type
(mag) Time Alt. Az. Time Alt. Az. Time Alt. Az.
05 Jul 6.4 04:35:06 10° NE 04:37:53 17° ENE 04:40:52 10° ESE visible
06 Jul 5.2 04:55:01 10° NNE 04:59:10 36° E 05:03:21 10° SSE visible
07 Jul 3.7 05:15:44 10° N 05:20:16 84° E 05:24:48 10° S visible
08 Jul 6.6 04:01:20 10° NE 04:02:52 12° ENE 04:04:42 10° E visible
08 Jul 4.1 05:36:59 10° NNW 05:41:16 42° W 05:45:31 10° SSW visible
09 Jul 5.7 04:20:28 10° NNE 04:24:13 26° ENE 04:28:03 10° SE visible
09 Jul 5.1 05:58:57 10° NW 06:02:12 19° W 06:05:18 10° SW visible
10 Jul 4.1 04:40:55 10° N 04:45:24 58° E 04:48:50 17° SSE visible
11 Jul 3.6 05:01:56 10° NNW 05:06:26 60° W 05:08:47 27° SSW visible
12 Jul 6.0 03:46:06 10° NNE 03:49:14 19° ENE 03:51:30 14° ESE visible
12 Jul 4.7 05:23:34 10° NNW 05:27:23 26° W 05:28:50 22° WSW visible
13 Jul 4.7 04:06:13 10° N 04:10:29 41° E 04:11:38 34° ESE visible
13 Jul 5.6 05:46:30 10° WNW 05:48:18 12° W 05:48:59 11° W visible
14 Jul 3.5 04:27:00 10° N 04:31:34 85° W 04:31:51 78° SSW visible
